When you browse on this site, cookies collect data to enhance your experience and personalize the content and advertising you see.
Visit our Privacy Policy to learn more. By continuing to use the site, you agree to this use of cookies and data.
  • In Netherlands
  • List of Countries
  • For 7 days
  • Water Temperature
  • Satellite Maps
  • Weather Map
  • Weather Widgets
  • user-avatar
    Login

    Hourly Weather Tarija

    Today, 17 July, Wednesday

    Time Temperature Precipitation Wind Pressure Humidity
    00:00 +11°C° 0 mm 1 mps 598 mmHg 81%
    01:00 +11°C° 0 mm 1 mps 598 mmHg 82%
    02:00 +11°C° 0 mm 1 mps 598 mmHg 87%
    03:00 +11°C° 0 mm 1 mps 597 mmHg 83%
    04:00 +10°C° 0 mm 1 mps 597 mmHg 79%
    05:00 +10°C° 0 mm 1 mps 597 mmHg 76%
    06:00 +11°C° 0 mm 1 mps 598 mmHg 70%
    07:00 +12°C° 0 mm 2 mps 599 mmHg 65%
    08:00 +12°C° 0 mm 2 mps 600 mmHg 60%
    09:00 +14°C° 0 mm 2 mps 600 mmHg 53%
    10:00 +16°C° 0 mm 2 mps 600 mmHg 47%
    11:00 +19°C° 0 mm 1 mps 601 mmHg 40%
    12:00 +19°C° 0 mm 2 mps 600 mmHg 38%
    13:00 +20°C° 0 mm 2 mps 600 mmHg 37%
    14:00 +20°C° 0 mm 2 mps 600 mmHg 35%
    15:00 +20°C° 0 mm 2 mps 599 mmHg 39%
    16:00 +19°C° 0 mm 2 mps 599 mmHg 44%
    17:00 +18°C° 0 mm 2 mps 598 mmHg 49%
    18:00 +17°C° 0 mm 2 mps 598 mmHg 57%
    19:00 +15°C° 0 mm 1 mps 598 mmHg 65%
    20:00 +14°C° 0 mm 1 mps 598 mmHg 72%
    21:00 +13°C° 0 mm 1 mps 598 mmHg 71%
    22:00 +13°C° 0 mm 1 mps 598 mmHg 70%
    23:00 +13°C° 0 mm 1 mps 597 mmHg 69%

    Tomorrow, 18 July, Thursday

    Time Temperature Precipitation Wind Pressure Humidity
    00:00 +13°C° 0 mm 1 mps 597 mmHg 63%
    01:00 +13°C° 0 mm 2 mps 597 mmHg 58%
    02:00 +13°C° 0 mm 2 mps 597 mmHg 52%
    03:00 +13°C° 0 mm 1 mps 597 mmHg 49%
    04:00 +13°C° 0 mm 1 mps 596 mmHg 45%
    05:00 +13°C° 0 mm 1 mps 596 mmHg 42%
    06:00 +14°C° 0 mm 1 mps 597 mmHg 38%
    07:00 +15°C° 0 mm 1 mps 598 mmHg 34%
    08:00 +16°C° 0 mm 2 mps 598 mmHg 30%
    09:00 +19°C° 0 mm 2 mps 599 mmHg 25%
    10:00 +21°C° 0 mm 2 mps 600 mmHg 21%
    11:00 +24°C° 0 mm 2 mps 601 mmHg 16%
    12:00 +25°C° 0 mm 3 mps 601 mmHg 16%
    13:00 +25°C° 0 mm 3 mps 600 mmHg 17%
    14:00 +26°C° 0 mm 4 mps 600 mmHg 18%
    15:00 +24°C° 0 mm 3 mps 599 mmHg 25%
    16:00 +22°C° 0 mm 3 mps 599 mmHg 33%
    17:00 +20°C° 0 mm 3 mps 598 mmHg 40%
    18:00 +18°C° 0.1 mm 2 mps 598 mmHg 53%
    19:00 +16°C° 0.1 mm 2 mps 598 mmHg 67%
    20:00 +14°C° 0.1 mm 1 mps 597 mmHg 80%
    21:00 +13°C° 0 mm 1 mps 598 mmHg 84%
    22:00 +13°C° 0 mm 1 mps 598 mmHg 88%
    23:00 +11°C° 0 mm 0 mps 598 mmHg 93%

    Day after tomorrow, 19 July, Friday

    Time Temperature Precipitation Wind Pressure Humidity
    00:00 +11°C° 0 mm 0 mps 598 mmHg 91%
    01:00 +10°C° 0 mm 0 mps 597 mmHg 89%
    02:00 +10°C° 0 mm 0 mps 597 mmHg 87%
    03:00 +11°C° 0 mm 1 mps 597 mmHg 85%
    04:00 +10°C° 0 mm 1 mps 597 mmHg 84%
    05:00 +10°C° 0 mm 1 mps 596 mmHg 83%
    06:00 +11°C° 0 mm 1 mps 597 mmHg 79%
    07:00 +12°C° 0 mm 1 mps 598 mmHg 76%
    08:00 +13°C° 0 mm 1 mps 599 mmHg 73%
    09:00 +15°C° 0 mm 2 mps 599 mmHg 66%
    10:00 +17°C° 0 mm 2 mps 600 mmHg 58%
    11:00 +19°C° 0 mm 2 mps 600 mmHg 50%
    12:00 +20°C° 0 mm 3 mps 600 mmHg 46%
    13:00 +21°C° 0 mm 3 mps 599 mmHg 42%
    14:00 +22°C° 0 mm 3 mps 599 mmHg 38%
    15:00 +21°C° 0 mm 3 mps 598 mmHg 45%
    16:00 +20°C° 0 mm 3 mps 597 mmHg 52%
    17:00 +18°C° 0 mm 2 mps 596 mmHg 59%
    18:00 +17°C° 0 mm 3 mps 596 mmHg 64%
    19:00 +16°C° 0 mm 3 mps 596 mmHg 69%
    20:00 +13°C° 0 mm 3 mps 596 mmHg 74%
    21:00 +14°C° 0 mm 2 mps 595 mmHg 72%
    22:00 +14°C° 0 mm 2 mps 595 mmHg 70%
    23:00 +13°C° 0 mm 2 mps 595 mmHg 68%

    20 July, Saturday

    Time Temperature Precipitation Wind Pressure Humidity
    00:00 +13°C° 0 mm 2 mps 595 mmHg 61%
    01:00 +13°C° 0 mm 2 mps 595 mmHg 54%
    02:00 +13°C° 0 mm 2 mps 594 mmHg 47%
    03:00 +13°C° 0 mm 2 mps 594 mmHg 41%
    04:00 +12°C° 0 mm 2 mps 593 mmHg 36%
    05:00 +11°C° 0 mm 3 mps 593 mmHg 30%
    06:00 +12°C° 0 mm 3 mps 594 mmHg 28%
    07:00 +13°C° 0 mm 3 mps 594 mmHg 25%
    08:00 +14°C° 0 mm 3 mps 595 mmHg 22%
    09:00 +18°C° 0 mm 3 mps 596 mmHg 18%
    10:00 +21°C° 0 mm 3 mps 597 mmHg 14%
    11:00 +25°C° 0 mm 3 mps 598 mmHg 9%
    12:00 +26°C° 0 mm 3 mps 597 mmHg 8%
    13:00 +27°C° 0 mm 3 mps 597 mmHg 7%
    14:00 +28°C° 0 mm 3 mps 596 mmHg 6%
    15:00 +27°C° 0 mm 3 mps 596 mmHg 8%
    16:00 +26°C° 0 mm 2 mps 595 mmHg 11%
    17:00 +26°C° 0 mm 2 mps 594 mmHg 13%
    18:00 +23°C° 0 mm 2 mps 594 mmHg 17%
    19:00 +20°C° 0 mm 2 mps 593 mmHg 22%
    20:00 +17°C° 0 mm 2 mps 593 mmHg 26%
    21:00 +16°C° 0 mm 2 mps 593 mmHg 23%
    22:00 +16°C° 0 mm 3 mps 593 mmHg 20%
    23:00 +14°C° 0 mm 3 mps 593 mmHg 17%

    21 July, Sunday

    Time Temperature Precipitation Wind Pressure Humidity
    00:00 +14°C° 0 mm 3 mps 593 mmHg 16%
    01:00 +14°C° 0 mm 3 mps 592 mmHg 15%
    02:00 +13°C° 0 mm 3 mps 592 mmHg 14%
    03:00 +13°C° 0 mm 3 mps 592 mmHg 15%
    04:00 +12°C° 0 mm 3 mps 591 mmHg 15%
    05:00 +12°C° 0 mm 3 mps 591 mmHg 15%
    06:00 +13°C° 0 mm 3 mps 592 mmHg 15%
    07:00 +13°C° 0 mm 3 mps 592 mmHg 16%
    08:00 +14°C° 0 mm 3 mps 593 mmHg 16%
    09:00 +18°C° 0 mm 4 mps 594 mmHg 13%
    10:00 +20°C° 0 mm 5 mps 595 mmHg 11%
    11:00 +23°C° 0 mm 5 mps 596 mmHg 8%
    12:00 +25°C° 0 mm 5 mps 595 mmHg 7%
    13:00 +27°C° 0 mm 6 mps 595 mmHg 6%
    14:00 +28°C° 0 mm 6 mps 595 mmHg 5%
    15:00 +27°C° 0 mm 5 mps 595 mmHg 7%
    16:00 +27°C° 0 mm 5 mps 594 mmHg 8%
    17:00 +26°C° 0 mm 4 mps 594 mmHg 10%
    18:00 +23°C° 0 mm 4 mps 593 mmHg 12%
    19:00 +20°C° 0 mm 4 mps 593 mmHg 14%
    20:00 +18°C° 0 mm 4 mps 593 mmHg 17%
    21:00 +17°C° 0 mm 4 mps 593 mmHg 16%
    22:00 +17°C° 0 mm 4 mps 593 mmHg 16%
    23:00 +16°C° 0 mm 3 mps 593 mmHg 16%

    22 July, Monday

    Time Temperature Precipitation Wind Pressure Humidity
    00:00 +16°C° 0 mm 3 mps 593 mmHg 15%
    01:00 +14°C° 0 mm 3 mps 593 mmHg 14%
    02:00 +14°C° 0 mm 4 mps 593 mmHg 14%
    03:00 +13°C° 0 mm 4 mps 593 mmHg 14%
    04:00 +13°C° 0 mm 4 mps 593 mmHg 14%
    05:00 +13°C° 0 mm 4 mps 593 mmHg 14%
    06:00 +13°C° 0 mm 4 mps 594 mmHg 14%
    07:00 +14°C° 0 mm 4 mps 594 mmHg 15%
    08:00 +15°C° 0 mm 4 mps 595 mmHg 16%
    09:00 +18°C° 0 mm 4 mps 596 mmHg 14%
    10:00 +21°C° 0 mm 5 mps 597 mmHg 12%
    11:00 +24°C° 0 mm 6 mps 598 mmHg 10%
    12:00 +24°C° 0 mm 6 mps 598 mmHg 11%
    13:00 +26°C° 0 mm 6 mps 597 mmHg 12%
    14:00 +27°C° 0 mm 6 mps 597 mmHg 13%
    15:00 +23°C° 0 mm 6 mps 596 mmHg 25%
    16:00 +21°C° 0 mm 6 mps 595 mmHg 37%
    17:00 +19°C° 0 mm 6 mps 594 mmHg 49%
    18:00 +17°C° 0 mm 4 mps 594 mmHg 60%
    19:00 +14°C° 0 mm 3 mps 594 mmHg 72%
    20:00 +14°C° 0 mm 1 mps 594 mmHg 83%
    21:00 +14°C° 0.1 mm 1 mps 595 mmHg 83%
    22:00 +14°C° 0.1 mm 1 mps 595 mmHg 82%
    23:00 +14°C° 0.1 mm 1 mps 596 mmHg 82%
    Show more